Погода в Малой Даниловке

Украина / Харьковская область     50°04′07″N   36°09′24″E
темп.,
°C
ветер,
м/с
пор.,
м/с
влажн.,
%
обл.,
%
осадки,
мм/ч
давл.,
гПа
погр.,
м
13 мая, чт
чт1300:00+8юв41194100 0.9 1013390
03:00+7юв399726 1.1 1014308
06:00+7юв369854 0.1 1013211
09:00+11ююв3578100 0.1 1013616
12:00+16ю464720 0.0 10131411
15:00+19ю45394 0.0 10131663
18:00+18ю3543100 0.0 10131184
21:00+14юв115798 0.0 101410
14 мая, пт
пт1400:00+13в246651 0.0 101369
03:00+12в2478100 0.0 101383
06:00+13вюв3108532 0.0 1012246
09:00+18вюв5108293 1.1 1011544
12:00+22юв61060100 0.0 10101031
15:00+24ююв7952100 0.0 10091514
18:00+23ююв4961100 0.0 10091227
21:00+19ююз3880100 0.3 1009207
15 мая, сб
сб1500:00+16ююз397441 0.0 1010210
03:00+14юз268246 0.0 1011152
06:00+13ююз278454 0.0 1012204
09:00+18ююз466329 0.0 1013725
12:00+22юз57497 0.0 10131854
15:00+21зюз3548100 0.0 10131317
18:00+20юз1255100 0.0 1013195
21:00+19юв1156100 0.0 101411
16 мая, вс
вс1600:00+17юв2265100 0.0 101343
03:00+16ю11705 0.0 101411
06:00+15в11722 0.0 101417
09:00+21вюв235318 0.0 1014469
12:00+25в2239100 0.0 10131754
15:00+25всв333990 0.0 10121779
18:00+24св4551100 0.0 10111314
21:00+20св397332 0.0 1010305
17 мая, пн
пн1700:00+18всв388296 0.0 1010183
03:00+17всв397572 0.0 1008187
06:00+16в4117127 0.0 1008281
09:00+22вюв5104886 0.0 1008500
12:00+26вюв71436100 0.0 10071356
15:00+27юв7113720 0.0 10061827
18:00+26юв47456 0.0 10061164
21:00+21ююв37685 0.0 1006243